We konden geen weer-waarchuwingen ophalen. Ga rechtstreeks naar de Meteoalarm site : www.meteoalarm.eu en controleer daar .



Onweer radar Meer informatie blitzortung!


Regen radar Meer informatie rain snow radar


Bezoek onze andere website:

Template documentation
and downloads

And another site



15 daagse weersverwachting Stavanger (NO)

  • Overzicht
  • Per uur
  • 15 dagen
  • Extra
  • Vergelijk
  • Kaarten
  • Dagkaart
  • Meer »
  • Info
  • Statistieken
  • Directe link
    Temp 6h Neerslag Wind  
 06:04     21:20    Daglengte: 15:16 Vandaag
14:00
15°
 
7
20:00
15°
 
7
 06:06     21:17    Daglengte: 15:11 Morgen
02:00
14°
 
4
08:00
14°
 
3
14:00
15°
 
2
20:00
16°
 
2
 06:08     21:14    Daglengte: 15:06 Vrijdag 19 Aug
02:00
15°
 
2
08:00
17°
0.5 mm
5
14:00
19°
1.3 mm
6
20:00
16°
9.0 mm
4
 06:10     21:12    Daglengte: 15:02 Zaterdag 20 Aug
02:00
15°
8.1 mm
1
08:00
15°
 
2
Locatie info
Region: Rogaland
Latitude: 58.9710°N
Longitude: 5.7306°E
15 masl
Postcode: 4006
Temp/Neerslag /Baro Onweer/Dauwpunt
    Temp Baro 1h Neerslag Dauwpunt Wind UV Bewolking  
 06:04     21:20    Daglengte: 15:16 Vandaag
13:00
15°
1013.9 hPa
14%
11.2°
7
Windvlaag: -7 m/s
43%
14:00
15°
1014.2 hPa
18%
11.3°
7
Windvlaag: -7.1 m/s
54%
15:00
16°
1014.1 hPa
14%
11.0°
6
Windvlaag: -6.9 m/s
10%
16:00
16°
1014.3 hPa
14%
10.5°
6
Windvlaag: -6.5 m/s
14%
17:00
16°
1014.4 hPa
15%
10.6°
6
Windvlaag: -6.2 m/s
8%
18:00
15°
1014.6 hPa
14%
10.6°
7
Windvlaag: -6.1 m/s
7%
19:00
15°
1014.7 hPa
14%
10.9°
7
Windvlaag: -5.9 m/s
7%
20:00
15°
1014.4 hPa
15%
10.8°
7
Windvlaag: -5.5 m/s
5%
21:00
14°
1014.6 hPa
14%
10.7°
6
Windvlaag: -5.6 m/s
17%
22:00
14°
1014.8 hPa
14%
10.8°
5
Windvlaag: -5.5 m/s
9%
23:00
14°
1015.0 hPa
14%
10.7°
5
Windvlaag: -5.1 m/s
9%
 06:06     21:17    Daglengte: 15:11 Morgen
00:00
14°
1015.1 hPa
14%
10.5°
5
Windvlaag: -4.4 m/s
20%
01:00
14°
1015.0 hPa
14%
10.2°
5
Windvlaag: -4.9 m/s
16%
02:00
14°
1014.7 hPa
16%
10.1°
4
Windvlaag: -5.1 m/s
27%
03:00
14°
1014.5 hPa
14%
9.9°
4
Windvlaag: -5 m/s
17%
04:00
14°
1014.1 hPa
14%
9.9°
3
Windvlaag: -4.1 m/s
11%
05:00
14°
1013.8 hPa
14%
9.2°
3
Windvlaag: -3.6 m/s
27%
06:00
14°
1013.9 hPa
16%
9.1°
3
Windvlaag: -3.3 m/s
38%
07:00
14°
1014.0 hPa
14%
9.1°
3
Windvlaag: -3.4 m/s
64%
08:00
14°
1014.3 hPa
14%
8.9°
3
Windvlaag: -3.5 m/s
86%
09:00
14°
1014.3 hPa
15%
8.7°
2
Windvlaag: -2.7 m/s
57%
10:00
14°
1014.4 hPa
15%
8.4°
2
Windvlaag: -1.8 m/s
71%
11:00
14°
1014.5 hPa
14%
8.2°
2
Windvlaag: -1 m/s
85%
12:00
15°
1014.4 hPa
14%
8.0°
3
Windvlaag: -1.1 m/s
39%
13:00
15°
1014.2 hPa
14%
7.6°
3
Windvlaag: -1 m/s
59%
14:00
15°
1014.1 hPa
14%
7.4°
2
Windvlaag: -0.5 m/s
65%
15:00
16°
1013.9 hPa
14%
8.1°
2
Windvlaag: 1.9 m/s
68%
16:00
16°
1013.9 hPa
14%
8.4°
2
Windvlaag: 2.3 m/s
69%
17:00
16°
1013.6 hPa
14%
8.7°
2
Windvlaag: 2.6 m/s
67%
18:00
16°
1013.4 hPa
14%
9.0°
2
Windvlaag: 3.6 m/s
69%
19:00
16°
1013.0 hPa
14%
9.6°
2
Windvlaag: 3.5 m/s
67%
20:00
16°
1012.9 hPa
14%
10.2°
2
Windvlaag: 3.2 m/s
48%
21:00
16°
1012.8 hPa
14%
11.0°
2
Windvlaag: 3.9 m/s
79%
22:00
15°
1012.6 hPa
14%
11.8°
2
Windvlaag: 4.6 m/s
65%
23:00
15°
1012.3 hPa
14%
11.9°
2
Windvlaag: 5.5 m/s
80%
 06:08     21:14    Daglengte: 15:06 Vrijdag 19 Aug
00:00
15°
1012.1 hPa
18%
12.0°
2
Windvlaag: 6.1 m/s
85%
01:00
15°
1011.9 hPa
81%
12.3°
2
Windvlaag: 6.5 m/s
85%
02:00
15°
1011.6 hPa
82%
12.8°
2
Windvlaag: 6.7 m/s
85%
03:00
15°
1011.3 hPa 0.5 mm
82%
13.2°
2
Windvlaag: 6.9 m/s
85%
04:00
15°
1011.1 hPa
81%
13.4°
2
Windvlaag: 6.2 m/s
85%
05:00
16°
1009.9 hPa
23%
10.9°
4
Windvlaag: 6.6 m/s
95%
06:00
16°
1009.7 hPa
34%
11.0°
4
Windvlaag: 7.6 m/s
90%
07:00
16°
1009.7 hPa
21%
11.5°
5
Windvlaag: 7.7 m/s
95%
08:00
17°
1009.6 hPa
21%
12.0°
5
Windvlaag: 8 m/s
89%
09:00
17°
1009.5 hPa
24%
12.7°
5
Windvlaag: 9.2 m/s
80%
10:00
18°
1009.6 hPa 0.4 mm
21%
11.7°
6
Windvlaag: 10.4 m/s
84%
11:00
18°
1009.8 hPa 0.6 mm
21%
11.7°
6
Windvlaag: 10.3 m/s
74%
12:00
19°
1009.8 hPa
35%
12.2°
7
Windvlaag: 10.6 m/s
71%
13:00
19°
1009.8 hPa
92%
12.8°
7
Windvlaag: 10.8 m/s
81%
14:00
19°
1009.9 hPa 0.4 mm
100%
13.6°
6
Windvlaag: 10.6 m/s
76%
15:00
19°
1009.8 hPa 0.5 mm
100%
16.1°
6
Windvlaag: 9.6 m/s
86%
16:00
19°
1009.8 hPa 1.5 mm
100%
17.8°
5
Windvlaag: 8.6 m/s
88%
17:00
18°
1009.9 hPa 1.6 mm
97%
17.1°
5
Windvlaag: 7.1 m/s
95%
18:00
18°
1009.8 hPa 1.6 mm
97%
15.1°
5
Windvlaag: 6.6 m/s
95%
19:00
17°
1009.8 hPa 1.8 mm
97%
13.9°
4
Windvlaag: 5.6 m/s
93%
20:00
16°
1010.0 hPa 2.0 mm
97%
12.3°
4
Windvlaag: -1 m/s
84%
21:00
15°
1010.5 hPa 1.8 mm
100%
12.2°
2
Windvlaag: -1.3 m/s
91%
22:00
15°
1010.8 hPa 1.6 mm
100%
11.8°
3
Windvlaag: 2.3 m/s
93%
23:00
15°
1010.8 hPa 2.4 mm
92%
11.9°
2
Windvlaag: 2.9 m/s
78%
 06:10     21:12    Daglengte: 15:02 Zaterdag 20 Aug
00:00
16°
1010.6 hPa
83%
12.5°
1
Windvlaag: 3.6 m/s
88%
01:00
15°
1010.6 hPa 2.3 mm
82%
12.4°
1
Windvlaag: 4 m/s
73%
02:00
15°
1010.2 hPa
88%
12.3°
1
Windvlaag: 4 m/s
75%
03:00
15°
1010.0 hPa
86%
12.2°
2
Windvlaag: 4 m/s
71%
04:00
15°
1009.9 hPa
83%
11.9°
2
Windvlaag: 4.5 m/s
66%
05:00
15°
1009.7 hPa
33%
11.7°
1
Windvlaag: 4.7 m/s
63%
06:00
15°
1009.6 hPa
27%
12.0°
1
Windvlaag: 5.4 m/s
36%
07:00
15°
1009.6 hPa
35%
12.2°
2
Windvlaag: 5.4 m/s
18%
08:00
15°
1009.7 hPa
78%
12.1°
2
Windvlaag: 4.7 m/s
13%
09:00
16°
1009.6 hPa
43%
11.5°
2
Windvlaag: 5.2 m/s
15%
10:00
16°
1009.5 hPa
40%
10.8°
3
Windvlaag: 6.3 m/s
10%
11:00
17°
1009.1 hPa
37%
11.0°
3
Windvlaag: 6.8 m/s
15%
12:00
17°
1008.9 hPa
75%
11.5°
3
Windvlaag: 7 m/s
17%
Temp/Neerslag /Baro Onweer/Dauwpunt
    Temp Baro Neerslag Dauwpunt Wind Bewolking  
 06:04     21:20    Daglengte: 15:16 Vandaag
14:00
15°
1014.2 hPa   11.3°
7
54%
17:00
16°
1014.4 hPa   10.6°
6
8%
20:00
15°
1014.4 hPa   10.8°
7
5%
23:00
14°
1015.0 hPa   10.7°
5
9%
 06:06     21:17    Daglengte: 15:11 Morgen
02:00
14°
1014.7 hPa   10.1°
4
27%
05:00
14°
1013.8 hPa   9.2°
3
27%
08:00
14°
1014.3 hPa   8.9°
3
86%
11:00
14°
1014.5 hPa   8.2°
2
85%
14:00
15°
1014.1 hPa   7.4°
2
65%
17:00
16°
1013.6 hPa   8.7°
2
67%
20:00
16°
1012.9 hPa   10.2°
2
48%
23:00
15°
1012.3 hPa   11.9°
2
80%
 06:08     21:14    Daglengte: 15:06 Vrijdag 19 Aug
02:00
15°
1011.6 hPa   12.8°
2
85%
05:00
16°
1009.9 hPa 0.5 mm 10.9°
4
95%
08:00
17°
1009.6 hPa   12.0°
5
89%
11:00
18°
1009.8 hPa 0.9 mm 11.7°
6
74%
14:00
19°
1009.9 hPa 0.4 mm 13.6°
6
76%
17:00
18°
1009.9 hPa 3.6 mm 17.1°
5
95%
20:00
16°
1010.0 hPa 5.4 mm 12.3°
4
84%
23:00
15°
1010.8 hPa 5.8 mm 11.9°
2
78%
 06:10     21:12    Daglengte: 15:02 Zaterdag 20 Aug
02:00
15°
1010.2 hPa 2.3 mm 12.3°
1
75%
05:00
15°
1009.7 hPa   11.7°
1
63%
08:00
15°
1009.7 hPa   12.1°
2
13%
11:00
17°
1009.1 hPa   11.0°
3
15%
14:00
18°
1008.5 hPa   12.3°
4
16%
17:00
18°
1010.2 hPa 14.2 mm 11.6°
8
1%
20:00
17°
1009.1 hPa 14.3 mm 11.8°
8
1%
23:00
15°
1008.4 hPa 15.7 mm 12.7°
8
1%
 06:13     21:09    Daglengte: 14:56 Zondag 21 Aug
02:00
15°
1008.5 hPa 17.9 mm 12.0°
5
1%
05:00
14°
1008.4 hPa 19.8 mm 11.2°
4
0%
08:00
14°
1008.2 hPa 20.6 mm 10.5°
4
0%
11:00
16°
1008.0 hPa 22.0 mm 10.1°
6
0%
14:00
16°
1008.6 hPa 22.7 mm 9.9°
7
0%
17:00
16°
1008.3 hPa 24.1 mm 9.8°
8
0%
20:00
15°
1008.0 hPa 25.9 mm 9.9°
6
0%
23:00
14°
1007.9 hPa 28.1 mm 9.6°
4
1%
 06:15     21:06    Daglengte: 14:51 Maandag 22 Aug
02:00
13°
1008.3 hPa 30.1 mm 9.2°
4
1%
05:00
14°
1008.6 hPa 33.2 mm 8.8°
4
1%
08:00
14°
1010.0 hPa 36.4 mm 8.8°
3
1%
11:00
14°
1011.5 hPa 38.7 mm 8.8°
5
0%
14:00
15°
1013.4 hPa 39.2 mm 8.8°
5
0%
17:00
15°
1014.8 hPa 39.3 mm 8.2°
4
0%
20:00
14°
1015.5 hPa 39.3 mm 7.3°
2
0%
23:00
14°
1016.7 hPa 39.3 mm 6.9°
1
0%
 06:17     21:03    Daglengte: 14:46 Dinsdag 23 Aug
02:00
13°
1018.0 hPa 39.3 mm 7.8°
2
0%
05:00
13°
1018.2 hPa 39.3 mm 6.9°
2
1%
08:00
14°
1019.3 hPa 39.3 mm 6.0°
2
1%
11:00
16°
1020.1 hPa 39.3 mm 5.5°
2
1%
14:00
18°
1019.8 hPa 39.3 mm 7.0°
2
0%
17:00
19°
1018.9 hPa 39.3 mm 11.1°
2
0%
20:00
19°
1018.5 hPa 39.3 mm 11.5°
3
0%
23:00
18°
1018.4 hPa 39.8 mm 12.1°
8
1%
 06:19     21:00    Daglengte: 14:41 Woensdag 24 Aug
02:00
18°
1017.8 hPa 40.4 mm 12.7°
9
1%
05:00
18°
1015.5 hPa 40.7 mm 11.2°
13
1%
08:00
19°
1014.6 hPa 41.0 mm 8.9°
14
1%
11:00
19°
1013.9 hPa   9.5°
16
1%
14:00
19°
1014.2 hPa 82.2 mm 11.6°
14
1%
20:00
20°
1013.8 hPa 83.0 mm 12.5°
14
1%
 06:22     20:58    Daglengte: 14:36 Donderdag 25 Aug
02:00
20°
1014.4 hPa 86.3 mm 12.6°
7
1%
08:00
20°
1014.8 hPa 87.8 mm 12.6°
10
1%
14:00
19°
1017.0 hPa 89.2 mm 15.0°
8
1%
20:00
17°
1018.5 hPa 96.8 mm 15.8°
4
1%
 06:24     20:55    Daglengte: 14:31 Vrijdag 26 Aug
02:00
17°
1019.6 hPa 104.8 mm 15.5°
1
1%
08:00
17°
1020.1 hPa 108.3 mm 15.3°
2
1%
14:00
17°
1021.2 hPa 114.4 mm 15.3°
2
1%
20:00
17°
1021.8 hPa 115.4 mm 15.2°
1
1%
 06:26     20:52    Daglengte: 14:26 Zaterdag 27 Aug
02:00
17°
1023.1 hPa 117.0 mm 15.1°
1
1%
08:00
16°
1022.0 hPa 0.2 mm 12.6°
1
64%
14:00
18°
1022.6 hPa 0.1 mm 12.9°
2
57%
20:00
16°
1022.8 hPa 0.5 mm 13.0°
2
50%
 06:28     20:49    Daglengte: 14:21 Zondag 28 Aug
02:00
15°
1023.7 hPa 0.2 mm 12.1°
2
54%
08:00
15°
1023.7 hPa 0.2 mm 11.7°
1
50%
14:00
18°
1023.7 hPa 0.5 mm 12.9°
2
49%
20:00
17°
1023.1 hPa 0.6 mm 13.4°
2
40%
 06:31     20:46    Daglengte: 14:15 Maandag 29 Aug
02:00
16°
1023.5 hPa 0.8 mm 12.7°
1
51%
08:00
16°
1023.2 hPa 0.3 mm 12.4°
1
67%
14:00
18°
1023.2 hPa 0.2 mm 12.8°
2
64%
20:00
17°
1022.4 hPa 0.2 mm 13.2°
2
55%
 06:33     20:43    Daglengte: 14:10 Dinsdag 30 Aug
02:00
15°
1022.3 hPa 0.1 mm 12.5°
2
53%
08:00
16°
1021.5 hPa 0.3 mm 12.2°
1
58%
14:00
19°
1020.8 hPa 0.2 mm 12.8°
1
56%
20:00
17°
1019.5 hPa 0.9 mm 13.2°
1
51%
 06:35     20:40    Daglengte: 14:05 Woensdag 31 Aug
02:00
16°
1018.9 hPa 0.9 mm 12.4°
1
63%
08:00
16°
1017.6 hPa 1.8 mm 12.2°
1
61%
14:00
18°
1017.3 hPa 0.2 mm 12.4°
2
60%
20:00
16°
1016.6 hPa 0.5 mm 12.3°
2
62%
 06:37     20:38    Daglengte: 14:01 Donderdag 01 Sep
02:00
15°
1016.5 hPa 0.6 mm 11.9°
1
58%
08:00
15°
1015.7 hPa 0.4 mm 11.3°
0
70%
  CAPE Lifted Index Hail Supercell Tornado SRH 3km CL BTM PRES CL TOP PRES Swiss DWD icon SMHI TS
 06:04     21:20    Daglengte: 15:16 Vandaag
13:00 10 J/kg 6.9 K 0 % 0 % 0 % 0 m²/s² 0 0 10.65 2
14:00 6 J/kg 6.6 K 0 % 0 % 0 % 0 m²/s² 0 0 11.07 2
15:00 2 J/kg 6.3 K 0 % 0 % 0 % 0 m²/s² 0 0 11.97 2
16:00 1 J/kg 6.2 K 0 % 0 % 0 % 0 m²/s² 0 0 13.37 2
17:00 0 J/kg 6.5 K 0 % 0 % 0 % 0 m²/s² 0 0 15.47 1
18:00 0 J/kg 6.5 K 0 % 0 % 0 % 0 m²/s² 0 0 16.34 1
19:00 0 J/kg 6.7 K 0 % 0 % 0 % 0 m²/s² 0 0 17.02 1
20:00 0 J/kg 7.2 K 0 % 0 % 0 % 0 m²/s² 0 0 17.55 1
21:00 0 J/kg 7.7 K 0 % 0 % 0 % 0 m²/s² 0 0 18.08 1
22:00 0 J/kg 8.0 K 0 % 0 % 0 % 0 m²/s² 0 0 18.92 1
23:00 0 J/kg 8.3 K 0 % 0 % 0 % 0 m²/s² 0 0 19.22 1
 06:06     21:17    Daglengte: 15:11 Morgen
00:00 0 J/kg 8.3 K 0 % 0 % 0 % 0 m²/s² 0 0 19.25 1
01:00 1 J/kg 8.6 K 0 % 0 % 0 % 0 m²/s² 0 0 19.55 1
02:00 1 J/kg 8.9 K 0 % 0 % 0 % 0 m²/s² 0 0 19.85 2
03:00 0 J/kg 9.0 K 0 % 0 % 0 % 0 m²/s² 0 0 19.41 2
04:00 0 J/kg 9.1 K 0 % 0 % 0 % 0 m²/s² 0 0 19.51 2
05:00 0 J/kg 7.2 K 0 % 0 % 0 % 0 m²/s² 0 0 17.58 3
06:00 0 J/kg 7.1 K 0 % 0 % 0 % 0 m²/s² 0 0 17.48 3
07:00 1 J/kg 7.1 K 0 % 0 % 0 % 0 m²/s² 0 0 16.97 3
08:00 4 J/kg 7.7 K 0 % 0 % 0 % 0 m²/s² 0 0 17.18 3
09:00 4 J/kg 8.4 K 0 % 0 % 0 % 0 m²/s² 0 0 15.6 3
10:00 4 J/kg 8.7 K 0 % 0 % 0 % 0 m²/s² 0 0 12.99 3
11:00 4 J/kg 8.1 K 0 % 0 % 0 % 0 m²/s² 0 0 10.83 3
12:00 3 J/kg 7.8 K 0 % 0 % 0 % 0 m²/s² 0 0 10.17 3
13:00 0 J/kg 7.9 K 0 % 0 % 0 % 0 m²/s² 0 0 10.39 3
14:00 0 J/kg 8.3 K 0 % 0 % 0 % 0 m²/s² 0 0 10.79 3
15:00 0 J/kg 9.0 K 0 % 0 % 0 % 0 m²/s² 0 0 11.97 3
16:00 0 J/kg 9.4 K 0 % 0 % 0 % 0 m²/s² 0 0 13.48 3
17:00 0 J/kg 10.2 K 0 % 0 % 0 % 0 m²/s² 0 0 16.23 3
18:00 0 J/kg 10.3 K 0 % 0 % 0 % 0 m²/s² 0 0 17.53 3
19:00 0 J/kg 10.7 K 0 % 0 % 0 % 0 m²/s² 0 0 18.17 3
20:00 0 J/kg 10.9 K 0 % 0 % 0 % 0 m²/s² 0 0 17.92 3
21:00 0 J/kg 11.0 K 0 % 0 % 0 % 0 m²/s² 0 0 17.21 3
22:00 0 J/kg 11.2 K 0 % 0 % 0 % 0 m²/s² 0 0 15.73 3
23:00 0 J/kg 11.4 K 0 % 0 % 0 % 0 m²/s² 0 0 14.22 3
 06:08     21:14    Daglengte: 15:06 Vrijdag 19 Aug
00:00 0 J/kg 11.3 K 0 % 0 % 0 % 0 m²/s² 0 0 13.31 3
01:00 0 J/kg 11.0 K 0 % 0 % 0 % 0 m²/s² 0 0 12.14 61
02:00 0 J/kg 10.9 K 0 % 0 % 0 % 0 m²/s² 0 0 11.47 61
03:00 0 J/kg 10.4 K 0 % 0 % 0 % 0 m²/s² 0 0 10.91 61
04:00 0 J/kg 9.6 K 0 % 0 % 0 % 0 m²/s² 0 0 10.23 3
05:00 0 J/kg 7.4 K 0 % 0 % 0 % 0 m²/s² 0 0 8.12 3
06:00 0 J/kg 5.8 K 0 % 0 % 0 % 0 m²/s² 0 0 6.28 3
07:00 0 J/kg 4.6 K 0 % 0 % 0 % 0 m²/s² 0 0 4.63 3
08:00 0 J/kg 2.1 K 0 % 0 % 0 % 0 m²/s² 0 0 2.1 3
09:00 0 J/kg 2.6 K 0 % 0 % 0 % 0 m²/s² 0 0 3.35 3
10:00 0 J/kg 2.0 K 0 % 0 % 0 % 0 m²/s² 0 0 4.49 3
11:00 0 J/kg 1.4 K 0 % 0 % 0 % 0 m²/s² 0 0 3.08 2
12:00 0 J/kg 1.1 K 0 % 0 % 0 % 0 m²/s² 0 0 2.45 3
13:00 0 J/kg 0.7 K 0 % 0 % 0 % 0 m²/s² 0 0 2.5 3
14:00 0 J/kg 0.3 K 0 % 0 % 0 % 0 m²/s² 0 0 1.14 3
15:00 0 J/kg 0.6 K 0 % 0 % 0 % 0 m²/s² 0 0 0.78 80
16:00 5 J/kg 1.3 K 0 % 0 % 0 % 0 m²/s² 0 0 1.33 3
17:00 6 J/kg 2.5 K 0 % 0 % 0 % 0 m²/s² 0 0 5.29 3
18:00 0 J/kg 3.6 K 0 % 0 % 0 % 0 m²/s² 0 0 9.12 3
19:00 1 J/kg 5.5 K 0 % 0 % 0 % 0 m²/s² 0 0 14.11 3
20:00 4 J/kg 5.9 K 0 % 0 % 0 % 0 m²/s² 0 0 14.18 3
21:00 8 J/kg 6.1 K 0 % 0 % 0 % 0 m²/s² 0 0 13.51 3
22:00 15 J/kg 6.2 K 0 % 0 % 0 % 0 m²/s² 0 0 11.3 3
23:00 36 J/kg 5.8 K 0 % 0 % 0 % 0 m²/s² 0 0 9.64 3
 06:10     21:12    Daglengte: 15:02 Zaterdag 20 Aug
00:00 48 J/kg 5.6 K 0 % 0 % 0 % 0 m²/s² 0 0 10.97 3
01:00 55 J/kg 5.7 K 0 % 0 % 0 % 0 m²/s² 0 0 15.09 3
02:00 56 J/kg 5.9 K 0 % 0 % 0 % 0 m²/s² 0 0 15.74 3
03:00 62 J/kg 5.8 K 0 % 0 % 0 % 0 m²/s² 0 0 15.16 3
04:00 58 J/kg 5.9 K 0 % 0 % 0 % 0 m²/s² 0 0 14.51 3
05:00 49 J/kg 6.0 K 0 % 0 % 0 % 0 m²/s² 0 0 14.25 3
06:00 60 J/kg 5.4 K 0 % 0 % 0 % 0 m²/s² 0 0 14.73 2
07:00 100 J/kg 4.6 K 0 % 0 % 0 % 0 m²/s² 0 0 13.9 2
08:00 103 J/kg 4.1 K 0 % 0 % 0 % 0 m²/s² 0 0 11 2
09:00 91 J/kg 4.2 K 0 % 0 % 0 % 0 m²/s² 0 0 11.79 2
10:00 66 J/kg 4.6 K 0 % 0 % 0 % 0 m²/s² 0 0 11.26 2
11:00 61 J/kg 4.5 K 0 % 0 % 0 % 0 m²/s² 0 0 9.93 2
12:00 83 J/kg 3.7 K 0 % 0 % 0 % 0 m²/s² 0 0 7.57 2
Temp Baro Wind Neerslag
  EWN Forecast EWN WRFDA DWD ICON FMI HIRLAM MET Norway GFS
 06:04     21:20    Daglengte: 15:16 Vandaag
14:00 15.3° 1014.2 hPa 6.7 m/s 0.0 mm 14.9° 1012.6 hPa 7.0 m/s 0.7 mm 15.4° 1014.5 hPa 6.8 m/s -2.0 mm 15.6° 1014.0 hPa 4.0 m/s 0.0 mm 14.8° 1013.9 hPa 8.5 m/s
17:00 15.5° 1014.4 hPa 6.5 m/s 0.0 mm 15.5° 1012.9 hPa 7.6 m/s 1.0 mm 15.5° 1014.3 hPa 6.4 m/s 0.0 mm 16.3° 1014.5 hPa 4.7 m/s 0.0 mm 14.6° 1014.8 hPa 9.1 m/s
20:00 14.7° 1014.4 hPa 6.5 m/s 0.0 mm 14.6° 1013.2 hPa 6.3 m/s 1.0 mm 14.9° 1014.3 hPa 5.6 m/s 0.0 mm 14.6° 1015.0 hPa 6.7 m/s 0.0 mm 14.2° 1014.1 hPa 6.9 m/s
23:00 13.9° 1015.0 hPa 5.0 m/s 0.0 mm 12.6° 1013.5 hPa 4.0 m/s 1.0 mm 14.1° 1014.5 hPa 4.4 m/s 0.0 mm 14.0° 1015.9 hPa 5.2 m/s 0.0 mm 14.3° 1014.6 hPa 6.1 m/s
 06:06     21:17    Daglengte: 15:11 Morgen
02:00 13.8° 1014.7 hPa 4.0 m/s 0.0 mm 12.0° 1013.0 hPa 4.0 m/s 1.0 mm 14.0° 1014.7 hPa 3.5 m/s 0.0 mm 14.0° 1016.3 hPa 3.8 m/s 0.0 mm 14.1° 1014.1 hPa 5.0 m/s
05:00 13.6° 1013.8 hPa 2.6 m/s 0.0 mm 11.3° 1012.2 hPa 2.0 m/s 1.0 mm 13.9° 1013.7 hPa 2.6 m/s 0.0 mm 14.1° 1015.7 hPa 2.0 m/s 0.0 mm 14.0° 1013.0 hPa 2.8 m/s
08:00 13.7° 1014.3 hPa 2.5 m/s 0.0 mm 13.0° 1012.9 hPa 0.6 m/s 1.0 mm 14.2° 1014.3 hPa 1.6 m/s 0.0 mm 13.7° 1016.0 hPa 3.5 m/s 0.0 mm 13.8° 1014.1 hPa 1.7 m/s
11:00 14.3° 1014.5 hPa 2.4 m/s 0.0 mm 15.3° 1012.2 hPa 1.5 m/s 1.4 mm 14.9° 1014.6 hPa 2.8 m/s 0.0 mm 14.0° 1015.9 hPa 2.6 m/s 0.0 mm 14.2° 1013.9 hPa 1.9 m/s
14:00 15.4° 1014.1 hPa 2.0 m/s 0.0 mm 15.6° 1011.9 hPa 4.3 m/s 1.5 mm 15.5° 1014.3 hPa 1.8 m/s 0.0 mm 15.8° 1015.4 hPa 1.7 m/s 0.0 mm 14.1° 1014.0 hPa 2.3 m/s
17:00 16.4° 1013.6 hPa 2.1 m/s 0.0 mm 15.2° 1012.0 hPa 4.3 m/s 1.5 mm 16.7° 1013.7 hPa 2.2 m/s 0.0 mm 16.7° 1014.6 hPa 0.4 m/s 0.0 mm 14.5° 1013.9 hPa 3.4 m/s
20:00 15.9° 1012.9 hPa 1.9 m/s 0.0 mm 15.0° 1011.3 hPa 4.3 m/s 1.5 mm 16.5° 1013.2 hPa 1.9 m/s 0.0 mm 16.0° 1013.6 hPa 1.7 m/s 0.0 mm 14.1° 1013.6 hPa 3.3 m/s
23:00 15.2° 1012.3 hPa 1.6 m/s 0.0 mm 13.6° 1010.9 hPa 2.8 m/s 1.5 mm 15.9° 1012.4 hPa 1.2 m/s 0.0 mm 14.3° 1013.4 hPa 0.4 m/s 0.0 mm 13.7° 1013.6 hPa 3.3 m/s
 06:08     21:14    Daglengte: 15:06 Vrijdag 19 Aug
02:00 15.1° 1011.6 hPa 2.2 m/s 0.0 mm 13.0° 1010.0 hPa 3.4 m/s 1.5 mm 15.7° 1011.8 hPa 1.5 m/s 0.1 mm 13.8° 1012.4 hPa 1.5 m/s 0.0 mm 14.0° 1012.8 hPa 2.6 m/s
05:00 15.7° 1009.9 hPa 4.0 m/s 0.5 mm 13.7° 1009.2 hPa 4.0 m/s 1.5 mm 15.8° 1011.0 hPa 2.1 m/s 0.4 mm 15.0° 1011.9 hPa 3.1 m/s
08:00 16.8° 1009.6 hPa 4.8 m/s 0.0 mm 15.1° 1008.9 hPa 5.0 m/s 1.5 mm 17.1° 1010.9 hPa 2.3 m/s 0.0 mm 15.1° 1011.6 hPa 3.7 m/s
11:00 18.5° 1009.8 hPa 5.9 m/s 0.9 mm 18.4° 1007.9 hPa 5.6 m/s 2.3 mm 19.3° 1010.5 hPa 5.3 m/s 0.0 mm 15.8° 1011.0 hPa 5.2 m/s
14:00 19.1° 1009.9 hPa 6.2 m/s 0.4 mm 18.3° 1007.4 hPa 6.1 m/s 2.5 mm 19.2° 1010.6 hPa 5.7 m/s 0.2 mm 16.2° 1010.6 hPa 5.6 m/s
17:00 18.4° 1009.9 hPa 5.0 m/s 3.6 mm 15.9° 1008.2 hPa 4.9 m/s 14.6 mm 18.9° 1010.5 hPa 5.4 m/s 0.5 mm 15.3° 1010.6 hPa 4.2 m/s
20:00 15.7° 1010.0 hPa 3.9 m/s 5.4 mm 15.3° 1008.9 hPa 4.3 m/s 20.3 mm 17.6° 1010.5 hPa 2.1 m/s 0.5 mm 15.7° 1011.2 hPa 3.2 m/s
23:00 14.9° 1010.8 hPa 2.3 m/s 5.8 mm 14.5° 1010.0 hPa 2.0 m/s 20.3 mm 16.0° 1010.9 hPa 1.1 m/s 0.4 mm 15.3° 1012.2 hPa 6.0 m/s
 06:10     21:12    Daglengte: 15:02 Zaterdag 20 Aug
02:00 15.2° 1010.2 hPa 1.5 m/s 2.3 mm 13.3° 1010.0 hPa 2.6 m/s 20.4 mm 15.6° 1010.2 hPa 1.2 m/s 0.3 mm 14.8° 1012.5 hPa 5.0 m/s
05:00 14.9° 1009.7 hPa 1.1 m/s 0.0 mm 13.0° 1009.9 hPa 2.9 m/s 20.4 mm 15.3° 1009.7 hPa 0.7 m/s 0.0 mm 14.5° 1012.5 hPa 4.2 m/s
08:00 15.4° 1009.7 hPa 2.0 m/s 0.0 mm 15.4° 1010.0 hPa 3.0 m/s 20.5 mm 15.3° 1009.6 hPa 1.8 m/s 0.0 mm 14.5° 1012.5 hPa 4.4 m/s
11:00 16.9° 1009.1 hPa 2.6 m/s 0.0 mm 16.8° 1009.8 hPa 5.5 m/s 20.7 mm 16.9° 1009.0 hPa 1.8 m/s 0.0 mm 16.6° 1011.9 hPa 5.2 m/s
14:00 18.0° 1008.5 hPa 4.2 m/s 0.0 mm 17.8° 1009.8 hPa 7.7 m/s 20.7 mm 18.1° 1008.2 hPa 3.4 m/s 0.0 mm 17.8° 1011.3 hPa 6.0 m/s
17:00 17.8° 1010.2 hPa 7.9 m/s 14.2 mm 17.8° 1010.2 hPa 7.9 m/s 14.2 mm
20:00 17.0° 1009.1 hPa 7.7 m/s 14.3 mm 17.0° 1009.1 hPa 7.7 m/s 14.3 mm
23:00 15.4° 1008.4 hPa 8.0 m/s 15.7 mm 15.4° 1008.4 hPa 8.0 m/s 15.7 mm
 06:13     21:09    Daglengte: 14:56 Zondag 21 Aug
02:00 15.0° 1008.5 hPa 4.7 m/s 17.9 mm 15.0° 1008.5 hPa 4.7 m/s 17.9 mm
05:00 14.2° 1008.4 hPa 4.5 m/s 19.8 mm 14.2° 1008.4 hPa 4.5 m/s 19.8 mm
08:00 14.1° 1008.2 hPa 4.1 m/s 20.6 mm 14.1° 1008.2 hPa 4.1 m/s 20.6 mm
11:00 16.1° 1008.0 hPa 6.3 m/s 22.0 mm 16.1° 1008.0 hPa 6.3 m/s 22.0 mm
14:00 15.9° 1008.6 hPa 7.4 m/s 22.7 mm 15.9° 1008.6 hPa 7.4 m/s 22.7 mm
17:00 15.6° 1008.3 hPa 7.9 m/s 24.1 mm 15.6° 1008.3 hPa 7.9 m/s 24.1 mm
20:00 14.7° 1008.0 hPa 5.9 m/s 25.9 mm 14.7° 1008.0 hPa 5.9 m/s 25.9 mm
23:00 13.7° 1007.9 hPa 4.4 m/s 28.1 mm 13.7° 1007.9 hPa 4.4 m/s 28.1 mm
 06:15     21:06    Daglengte: 14:51 Maandag 22 Aug
02:00 13.3° 1008.3 hPa 4.4 m/s 30.1 mm 13.3° 1008.3 hPa 4.4 m/s 30.1 mm
05:00 13.7° 1008.6 hPa 4.0 m/s 33.2 mm 13.7° 1008.6 hPa 4.0 m/s 33.2 mm
08:00 13.7° 1010.0 hPa 3.2 m/s 36.4 mm 13.7° 1010.0 hPa 3.2 m/s 36.4 mm
11:00 14.4° 1011.5 hPa 4.7 m/s 38.7 mm 14.4° 1011.5 hPa 4.7 m/s 38.7 mm
14:00 14.7° 1013.4 hPa 4.7 m/s 39.2 mm 14.7° 1013.4 hPa 4.7 m/s 39.2 mm
17:00 14.7° 1014.8 hPa 3.9 m/s 39.3 mm 14.7° 1014.8 hPa 3.9 m/s 39.3 mm
20:00 14.5° 1015.5 hPa 1.8 m/s 39.3 mm 14.5° 1015.5 hPa 1.8 m/s 39.3 mm
23:00 14.0° 1016.7 hPa 0.7 m/s 39.3 mm 14.0° 1016.7 hPa 0.7 m/s 39.3 mm
 06:17     21:03    Daglengte: 14:46 Dinsdag 23 Aug
02:00 13.1° 1018.0 hPa 2.3 m/s 39.3 mm 13.1° 1018.0 hPa 2.3 m/s 39.3 mm
05:00 13.1° 1018.2 hPa 2.2 m/s 39.3 mm 13.1° 1018.2 hPa 2.2 m/s 39.3 mm
08:00 13.5° 1019.3 hPa 2.5 m/s 39.3 mm 13.5° 1019.3 hPa 2.5 m/s 39.3 mm
11:00 15.5° 1020.1 hPa 1.8 m/s 39.3 mm 15.5° 1020.1 hPa 1.8 m/s 39.3 mm
14:00 17.6° 1019.8 hPa 2.3 m/s 39.3 mm 17.6° 1019.8 hPa 2.3 m/s 39.3 mm
17:00 19.2° 1018.9 hPa 1.8 m/s 39.3 mm 19.2° 1018.9 hPa 1.8 m/s 39.3 mm
20:00 19.4° 1018.5 hPa 3.2 m/s 39.3 mm 19.4° 1018.5 hPa 3.2 m/s 39.3 mm
23:00 18.3° 1018.4 hPa 8.1 m/s 39.8 mm 18.3° 1018.4 hPa 8.1 m/s 39.8 mm
 06:19     21:00    Daglengte: 14:41 Woensdag 24 Aug
02:00 17.8° 1017.8 hPa 8.8 m/s 40.4 mm 17.8° 1017.8 hPa 8.8 m/s 40.4 mm
05:00 18.1° 1015.5 hPa 13.0 m/s 40.7 mm 18.1° 1015.5 hPa 13.0 m/s 40.7 mm
08:00 18.6° 1014.6 hPa 14.3 m/s 41.0 mm 18.6° 1014.6 hPa 14.3 m/s 41.0 mm
11:00 18.9° 1013.9 hPa 15.8 m/s 41.1 mm 18.9° 1013.9 hPa 15.8 m/s 41.1 mm
14:00 19.5° 1014.2 hPa 14.3 m/s 41.1 mm 19.5° 1014.2 hPa 14.3 m/s 41.1 mm
20:00 19.9° 1013.8 hPa 14.2 m/s 41.8 mm 19.9° 1013.8 hPa 14.2 m/s 41.8 mm
 06:22     20:58    Daglengte: 14:36 Donderdag 25 Aug
02:00 19.5° 1014.4 hPa 7.4 m/s 43.7 mm 19.5° 1014.4 hPa 7.4 m/s 43.7 mm
08:00 19.7° 1014.8 hPa 10.4 m/s 44.0 mm 19.7° 1014.8 hPa 10.4 m/s 44.0 mm
14:00 19.0° 1017.0 hPa 7.5 m/s 45.1 mm 19.0° 1017.0 hPa 7.5 m/s 45.1 mm
20:00 16.9° 1018.5 hPa 4.5 m/s 49.7 mm 16.9° 1018.5 hPa 4.5 m/s 49.7 mm
 06:24     20:55    Daglengte: 14:31 Vrijdag 26 Aug
02:00 16.9° 1019.6 hPa 1.3 m/s 52.9 mm 16.9° 1019.6 hPa 1.3 m/s 52.9 mm
08:00 16.8° 1020.1 hPa 2.0 m/s 54.6 mm 16.8° 1020.1 hPa 2.0 m/s 54.6 mm
14:00 16.8° 1021.2 hPa 2.2 m/s 57.4 mm 16.8° 1021.2 hPa 2.2 m/s 57.4 mm
20:00 16.9° 1021.8 hPa 1.1 m/s 58.0 mm 16.9° 1021.8 hPa 1.1 m/s 58.0 mm
 06:26     20:52    Daglengte: 14:26 Zaterdag 27 Aug
02:00 16.6° 1023.1 hPa 1.4 m/s 58.6 mm 16.6° 1023.1 hPa 1.4 m/s 58.6 mm
08:00 15.7° 1022.0 hPa 0.7 m/s 0.2 mm
14:00 17.9° 1022.6 hPa 2.0 m/s 0.1 mm
20:00 16.4° 1022.8 hPa 2.4 m/s 0.5 mm
 06:28     20:49    Daglengte: 14:21 Zondag 28 Aug
02:00 15.1° 1023.7 hPa 1.9 m/s 0.2 mm
08:00 15.5° 1023.7 hPa 1.5 m/s 0.2 mm
14:00 18.4° 1023.7 hPa 2.0 m/s 0.5 mm
20:00 16.8° 1023.1 hPa 1.8 m/s 0.6 mm
 06:31     20:46    Daglengte: 14:15 Maandag 29 Aug
02:00 15.6° 1023.5 hPa 1.1 m/s 0.8 mm
08:00 15.9° 1023.2 hPa 1.1 m/s 0.3 mm
14:00 18.5° 1023.2 hPa 1.9 m/s 0.2 mm
20:00 16.8° 1022.4 hPa 2.0 m/s 0.2 mm
 06:33     20:43    Daglengte: 14:10 Dinsdag 30 Aug
02:00 15.4° 1022.3 hPa 1.7 m/s 0.1 mm
08:00 15.8° 1021.5 hPa 1.4 m/s 0.3 mm
14:00 18.5° 1020.8 hPa 1.0 m/s 0.2 mm
20:00 17.0° 1019.5 hPa 0.7 m/s 0.9 mm
 06:35     20:40    Daglengte: 14:05 Woensdag 31 Aug
02:00 15.6° 1018.9 hPa 1.2 m/s 0.9 mm
08:00 15.6° 1017.6 hPa 0.7 m/s 1.8 mm
14:00 17.8° 1017.3 hPa 1.9 m/s 0.2 mm
20:00 16.0° 1016.6 hPa 1.9 m/s 0.5 mm
 06:37     20:38    Daglengte: 14:01 Donderdag 01 Sep
02:00 14.7° 1016.5 hPa 1.1 m/s 0.6 mm
08:00 14.7° 1015.7 hPa 0.5 m/s 0.4 mm
FMI Hirlam - 7.5 km EWN WRFDA - 12 km DWD ICON - 7 km GFS - 25 km Basiskaart






























































Updatetijd (Europe/Amsterdam) Resolutie Lengte Stap
FMI Hirlam 07:15, 13:15, 19:15, 01:15 7.5 km 49h 1h
EWN WRFDA 10:15, 16:15, 22:15, 04:15 12 km 73h 1h
DWD ICON 11:45, 17:45, 23:45, 05:45 7 km 75h 1h
GFS 08:15, 14:15, 20:15, 02:15 25 km 237h 3h
30+ mm
25-30 mm
20-25 mm
15-20 mm
10-15 mm
6-10 mm
4-6 mm
2-4 mm
1-2 mm
0.5-1 mm
0.2-0.5 mm
0.1-0.2 mm
30+ mm
25-30 mm
20-25 mm
15-20 mm
10-15 mm
6-10 mm
4-6 mm
2-4 mm
1-2 mm
0.5-1 mm
0.2-0.5 mm
0.1-0.2 mm
Sneeuwval
Natte sneeuw
Hagel
Vorst
30+ mm
25-30 mm
20-25 mm
15-20 mm
10-15 mm
6-10 mm
4-6 mm
2-4 mm
1-2 mm
0.5-1 mm
0.2-0.5 mm
0.1-0.2 mm
Sneeuwval
Natte sneeuw
Hagel
Vorst
Onweer
50 mm
40 mm
30 mm
26 mm
22 mm
18 mm
14 mm
10 mm
9 mm
8 mm
7 mm
6 mm
5 mm
4.5 mm
4 mm
3.5 mm
3 mm
2.5 mm
2 mm
1.5 mm
1 mm
0.8 mm
0.6 mm
0.4 mm
0.2 mm
0.05 mm
35°
30°
25°
20°
15°
10°
-5°
-10°
-15°
-20°
-25°
-30°
-35°
33> m/s
29 m/s
25 m/s
21 m/s
17 m/s
14 m/s
11 m/s
8 m/s
5 m/s
3 m/s
0 m/s
2600 J/kg
2400 J/kg
2200 J/kg
2000 J/kg
1800 J/kg
1600 J/kg
1400 J/kg
1200 J/kg
1000 J/kg
800 J/kg
600 J/kg
400 J/kg
200 J/kg
70 dBZ
65 dBZ
60 dBZ
55 dBZ
50 dBZ
45 dBZ
40 dBZ
35 dBZ
30 dBZ
25 dBZ
20 dBZ
15 dBZ
10 dBZ
5 dBZ
-1 K
-2 K
-3 K
-4 K
-5 K
-6 K
-7 K
-8 K
-9 K
950 m²/s²
900 m²/s²
850 m²/s²
800 m²/s²
750 m²/s²
700 m²/s²
650 m²/s²
600 m²/s²
550 m²/s²
500 m²/s²
450 m²/s²
400 m²/s²
350 m²/s²
300 m²/s²
250 m²/s²
200 m²/s²
150 m²/s²
100 m²/s²
46 m/s
44 m/s
42 m/s
40 m/s
38 m/s
36 m/s
34 m/s
32 m/s
30 m/s
28 m/s
26 m/s
24 m/s
22 m/s
20 m/s
16 m/s
12 m/s
8 m/s
4 m/s
30 m/s
28 m/s
26 m/s
24 m/s
22 m/s
20 m/s
18 m/s
16 m/s
14 m/s
12 m/s
10 m/s
8 m/s
6 m/s
4 m/s
2 m/s
3.0
2.8
2.6
2.4
2.2
2.0
1.8
1.6
1.4
1.2
1.0
0.8
0.6
0.4
0.2
15
14
13
12
11
10
9
8
7
6
5
4
3
2
1
90%
80%
70%
60%
50%
40%
30%
20%
10%
42
40
38
36
34
32
30
28
26
24
22
20
18
16
14
12
90+ cm
80-90 cm
70-80 cm
60-70 cm
50-60 cm
40-50 cm
30-40 cm
20-30 cm
10-20 cm
1-10 cm
Sneeuwval
Natte sneeuw
Regen
>120 mm
115 mm
110 mm
105 mm
100 mm
95 mm
90 mm
85 mm
80 mm
75 mm
70 mm
65 mm
60 mm
55 mm
50 mm
45 mm
45 mm
40 mm
35 mm
30 mm
25 mm
20 mm
15 mm
10 mm
5 mm
0.1 mm
960 hPa
880 hPa
800 hPa
720 hPa
640 hPa
560 hPa
584 gpdm
568 gpdm
552 gpdm
536 gpdm
520 gpdm
504 gpdm
488 gpdm
Extreem zwaar Noodweer Kans op onweer
15% 15% 5% 50% 15%

Dag




Kaart






35°
30°
25°
20°
15°
10°
-5°
-10°
-15°
-20°
-25°
-30°
-35°